Wetterdaten: aktuell Samstag, 20.01.2018 11:59
Datum Zeit Temperatur Bodentemp. Luftfeuchte Luftdruck Regen Wind Richtung Richtung Sonnenschein
20.01.2018 11:59 4,2 C 2,1 C 100 % 1005 hPa 0,0 l/m 10,1 km/h (2 Bft) S-SW22.5 200 5 min
20.01.2018 11:54 3,9 C 1,8 C 100 % 1005 hPa 0,0 l/m 13,0 km/h (3 Bft) S-SW45 195 6 min
20.01.2018 11:48 3,6 C 1,6 C 100 % 1005 hPa 0,0 l/m 13,8 km/h (3 Bft) S-SW45 210 4 min
20.01.2018 11:44 3,5 C 1,4 C 100 % 1005 hPa 0,0 l/m 10,5 km/h (2 Bft) S-SW67.5 210 5 min
20.01.2018 11:39 3,3 C 1,4 C 100 % 1005 hPa 0,0 l/m 16,7 km/h (3 Bft) S-SW67.5 200 6 min
20.01.2018 11:33 3,3 C 1,4 C 100 % 1005 hPa 0,0 l/m 20,2 km/h (4 Bft) S-SW45 210 4 min
20.01.2018 11:29 3,2 C 1,4 C 100 % 1005 hPa 0,0 l/m 16,0 km/h (3 Bft) S22.5 190 5 min
20.01.2018 11:24 3,2 C 1,2 C 100 % 1005 hPa 0,0 l/m 12,9 km/h (3 Bft) SW45 215 5 min
20.01.2018 11:19 3,1 C 1,3 C 100 % 1005 hPa 0,0 l/m 14,2 km/h (3 Bft) SW45 215 6 min
20.01.2018 11:13 3,1 C 1,3 C 100 % 1005 hPa 0,0 l/m 20,9 km/h (4 Bft) S-SW22.5 210 4 min
20.01.2018 11:09 3,1 C 1,3 C 100 % 1005 hPa 0,0 l/m 11,3 km/h (2 Bft) S-SW45 210 5 min
20.01.2018 11:04 3,1 C 1,3 C 100 % 1006 hPa 0,0 l/m 12,1 km/h (2 Bft) S-SW67.5 205 6 min
20.01.2018 10:58 3,1 C 1,3 C 100 % 1005 hPa 0,0 l/m 11,0 km/h (2 Bft) S-SW45 210 4 min
20.01.2018 10:54 3,1 C 1,3 C 100 % 1006 hPa 0,0 l/m 12,8 km/h (3 Bft) S-SW22.5 205 5 min
20.01.2018 10:49 3,1 C 1,3 C 100 % 1006 hPa 0,0 l/m 15,0 km/h (3 Bft) SW22.5 215 5 min
20.01.2018 10:44 3,2 C 1,3 C 100 % 1006 hPa 0,4 l/m 10,5 km/h (2 Bft) S-SW45 210 6 min
20.01.2018 10:38 3,2 C 1,3 C 100 % 1006 hPa 0,0 l/m 15,8 km/h (3 Bft) S-SW45 195 4 min
20.01.2018 10:34 3,3 C 1,3 C 100 % 1006 hPa 0,0 l/m 18,2 km/h (3 Bft) S-SW45 210 5 min
20.01.2018 10:29 3,4 C 1,4 C 100 % 1006 hPa 0,0 l/m 9,6 km/h (2 Bft) S-SW22.5 200 6 min
20.01.2018 10:23 3,3 C 1,5 C 100 % 1006 hPa 0,0 l/m 11,3 km/h (2 Bft) S-SW45 200 4 min
20.01.2018 10:19 3,2 C 1,6 C 100 % 1006 hPa 0,0 l/m 11,1 km/h (2 Bft) S-SW45 210 5 min
20.01.2018 10:14 2,9 C 1,5 C 100 % 1006 hPa 0,4 l/m 12,5 km/h (2 Bft) S-SW22.5 205 5 min
20.01.2018 10:09 2,7 C 1,3 C 100 % 1006 hPa 0,0 l/m 9,3 km/h (2 Bft) S-SW22.5 210 6 min
20.01.2018 10:03 2,5 C 1,2 C 100 % 1006 hPa 0,4 l/m 7,9 km/h (2 Bft) S-SW22.5 200 4 min
20.01.2018 09:59 2,1 C 0,9 C 100 % 1006 hPa 0,0 l/m 5,9 km/h (2 Bft) S22.5 185 5 min
20.01.2018 09:54 2,0 C 1,0 C 100 % 1006 hPa 0,0 l/m 13,8 km/h (3 Bft) SW22.5 235 0 min
20.01.2018 09:48 1,9 C 0,8 C 100 % 1006 hPa 0,0 l/m 7,2 km/h (2 Bft) SW22.5 230 0 min
20.01.2018 09:44 1,6 C 0,7 C 100 % 1006 hPa 0,0 l/m 4,5 km/h (1 Bft) S-SW 210 0 min
20.01.2018 09:39 1,6 C 0,8 C 100 % 1006 hPa 0,0 l/m 0,0 km/h (0 Bft) W-SW 240 0 min
20.01.2018 09:34 1,5 C 0,7 C 100 % 1006 hPa 0,0 l/m 0,0 km/h (0 Bft) W 280 0 min
20.01.2018 09:28 1,4 C 0,6 C 100 % 1006 hPa 0,0 l/m 0,0 km/h (0 Bft) W 280 0 min
20.01.2018 09:24 1,4 C 0,6 C 100 % 1006 hPa 0,0 l/m 0,0 km/h (0 Bft) W-NW 285 0 min
20.01.2018 09:19 1,3 C 0,5 C 100 % 1006 hPa 0,0 l/m 0,0 km/h (0 Bft) NW22.5 315 0 min
20.01.2018 09:13 1,3 C 0,5 C 100 % 1006 hPa 0,0 l/m 0,0 km/h (0 Bft) N-NW 330 0 min
20.01.2018 09:09 1,3 C 0,5 C 100 % 1006 hPa 0,0 l/m 0,0 km/h (0 Bft) N-NW 330 0 min
20.01.2018 09:04 1,3 C 0,5 C 100 % 1006 hPa 0,4 l/m 0,0 km/h (0 Bft) N-NW 330 0 min
20.01.2018 08:59 1,2 C 0,5 C 100 % 1006 hPa 0,0 l/m 0,0 km/h (0 Bft) N-NW 330 0 min
20.01.2018 08:53 1,2 C 0,6 C 100 % 1006 hPa 0,0 l/m 2,8 km/h (1 Bft) W-SW 250 0 min
20.01.2018 08:49 1,2 C 0,6 C 100 % 1006 hPa 0,0 l/m 0,0 km/h (0 Bft) SW 215 0 min
20.01.2018 08:44 1,2 C 0,6 C 100 % 1006 hPa 0,0 l/m 0,7 km/h (0 Bft) S-SW22.5 200 0 min
20.01.2018 08:38 1,2 C 0,5 C 100 % 1006 hPa 0,0 l/m 11,1 km/h (2 Bft) S-SW45 195 0 min
20.01.2018 08:34 1,2 C 0,6 C 100 % 1006 hPa 0,0 l/m 10,3 km/h (2 Bft) S-SW45 200 0 min
20.01.2018 08:29 1,2 C 0,5 C 100 % 1006 hPa 0,0 l/m 10,9 km/h (2 Bft) S-SW45 205 0 min
20.01.2018 08:24 1,3 C 0,5 C 100 % 1006 hPa 0,0 l/m 12,4 km/h (2 Bft) S-SW22.5 205 0 min
20.01.2018 08:19 1,3 C 0,6 C 100 % 1006 hPa 0,0 l/m 14,2 km/h (3 Bft) SW45 215 0 min
20.01.2018 08:14 1,4 C 0,6 C 100 % 1006 hPa 0,4 l/m 13,2 km/h (3 Bft) S-SW45 210 0 min
20.01.2018 08:09 1,4 C 0,6 C 100 % 1007 hPa 0,0 l/m 11,5 km/h (2 Bft) S-SW22.5 205 0 min
20.01.2018 08:03 1,4 C 0,5 C 100 % 1007 hPa 0,0 l/m 23,6 km/h (4 Bft) SW22.5 235 0 min
20.01.2018 07:59 1,5 C 0,5 C 100 % 1006 hPa 0,0 l/m 18,8 km/h (3 Bft) SW22.5 235 0 min
_ Min-Zeit 00:13 19:53 15:14 10:58 - 21:09 - - -
Minimum _ 0,4 C -0,3 C 91 % 1005 hPa - 0,0 km/h (0 Bft) - - -
_ Max-Zeit 14:34 14:39 12:04 21:29 12:09 14:04 - - 10:09
Maximum _ 4,2 C 2,2 C 100 % 1009 hPa 0,4 l/m 34,2 km/h
SW (5 Bft)
- - 6 min
Durchschnitt _ 1,9 C 0,8 C 99 % 1007 hPa #6,8 l/m 13,3 km/h (3 Bft) S-SW - #2:05 h